Terug naar catalogus

COSMOS 2251 DEB

ActiefLEO
NORAD 34446·DEBRIS·🇷🇺 Russia

Gelanceerd Jun 16, 1993 vanaf Plesetsk Cosmodrome

Loading…

Volgende Passages (komende 24 uur)

TLE

VersSource: Space-Track

Epoch: Sep 14, 2026, 18:12 UTC

1 34446U 93036SP  26257.75867665  .00000269  00000-0  76314-4 0  9996
2 34446  74.0386 259.5413 0051688 325.5840  34.1976 14.49590067926939

Volg COSMOS 2251 DEB in realtime met AllMySat

Download on the App Store